EN

Hourly Weather Altmittweida

Today, 24 January, Sunday

Time Temperature Precipitation Wind Pressure Humidity
00:00 -4°C° 0 mm 2 mps 721 mmHg 88%
01:00 -4°C° 0 mm 2 mps 721 mmHg 87%
02:00 -4°C° 0 mm 2 mps 721 mmHg 86%
03:00 -4°C° 0 mm 2 mps 720 mmHg 85%
04:00 -4°C° 0 mm 2 mps 720 mmHg 84%
05:00 -4°C° 0 mm 2 mps 720 mmHg 83%
06:00 -4°C° 0 mm 2 mps 720 mmHg 82%
07:00 -4°C° 0 mm 2 mps 721 mmHg 81%
08:00 -3°C° 0 mm 2 mps 721 mmHg 82%
09:00 -3°C° 0 mm 2 mps 721 mmHg 84%
10:00 0°C° 0 mm 1 mps 721 mmHg 85%
11:00 0°C° 0.2 mm 1 mps 721 mmHg 89%
12:00 +1°C° 0.2 mm 1 mps 721 mmHg 93%
13:00 +1°C° 0.2 mm 1 mps 721 mmHg 96%
14:00 -1°C° 0.6 mm 2 mps 721 mmHg 97%
15:00 -1°C° 0.6 mm 2 mps 721 mmHg 98%
16:00 -1°C° 0.6 mm 3 mps 721 mmHg 98%
17:00 -1°C° 0.7 mm 3 mps 722 mmHg 98%
18:00 -1°C° 0.7 mm 3 mps 722 mmHg 98%
19:00 -3°C° 0.7 mm 4 mps 723 mmHg 97%
20:00 -2°C° 0.2 mm 3 mps 723 mmHg 97%
21:00 -4°C° 0.2 mm 3 mps 723 mmHg 96%
22:00 -4°C° 0.2 mm 3 mps 723 mmHg 95%
23:00 -5°C° 0 mm 3 mps 723 mmHg 94%

Tomorrow, 25 January, Monday

Time Temperature Precipitation Wind Pressure Humidity
00:00 -6°C° 0 mm 3 mps 723 mmHg 94%
01:00 -5°C° 0 mm 2 mps 724 mmHg 93%
02:00 -5°C° 0 mm 2 mps 724 mmHg 93%
03:00 -5°C° 0 mm 2 mps 724 mmHg 93%
04:00 -6°C° 0 mm 2 mps 724 mmHg 93%
05:00 -6°C° 0 mm 2 mps 725 mmHg 92%
06:00 -6°C° 0 mm 2 mps 725 mmHg 92%
07:00 -5°C° 0 mm 2 mps 726 mmHg 92%
08:00 -6°C° 0 mm 3 mps 726 mmHg 92%
09:00 -5°C° 0 mm 3 mps 727 mmHg 91%
10:00 -5°C° 0 mm 3 mps 727 mmHg 91%
11:00 -4°C° 0 mm 3 mps 727 mmHg 90%
12:00 -2°C° 0 mm 3 mps 728 mmHg 89%
13:00 -2°C° 0 mm 4 mps 728 mmHg 88%
14:00 -2°C° 0 mm 3 mps 728 mmHg 89%
15:00 -2°C° 0 mm 3 mps 728 mmHg 89%
16:00 -4°C° 0 mm 3 mps 728 mmHg 89%
17:00 -4°C° 0 mm 3 mps 729 mmHg 90%
18:00 -5°C° 0 mm 3 mps 729 mmHg 90%
19:00 -6°C° 0 mm 3 mps 729 mmHg 90%
20:00 -6°C° 0 mm 3 mps 729 mmHg 90%
21:00 -6°C° 0 mm 3 mps 729 mmHg 90%
22:00 -6°C° 0 mm 3 mps 729 mmHg 90%
23:00 -6°C° 0.1 mm 3 mps 729 mmHg 92%

Day after tomorrow, 26 January, Tuesday

Time Temperature Precipitation Wind Pressure Humidity
00:00 -6°C° 0.1 mm 3 mps 729 mmHg 93%
01:00 -5°C° 0.1 mm 2 mps 729 mmHg 95%
02:00 -4°C° 0.1 mm 2 mps 729 mmHg 96%
03:00 -4°C° 0.1 mm 2 mps 730 mmHg 96%
04:00 -4°C° 0.1 mm 2 mps 730 mmHg 96%
05:00 -4°C° 0.1 mm 2 mps 730 mmHg 96%
06:00 -4°C° 0.1 mm 2 mps 730 mmHg 97%
07:00 -5°C° 0.1 mm 2 mps 731 mmHg 97%
08:00 -4°C° 0 mm 2 mps 731 mmHg 96%
09:00 -4°C° 0 mm 2 mps 732 mmHg 96%
10:00 -5°C° 0 mm 3 mps 732 mmHg 96%
11:00 -4°C° 0 mm 3 mps 732 mmHg 94%
12:00 -3°C° 0 mm 4 mps 733 mmHg 92%
13:00 -3°C° 0 mm 4 mps 733 mmHg 90%
14:00 -3°C° 0 mm 4 mps 733 mmHg 90%
15:00 -2°C° 0 mm 3 mps 733 mmHg 90%
16:00 -4°C° 0 mm 3 mps 733 mmHg 89%
17:00 -2°C° 0 mm 3 mps 733 mmHg 89%
18:00 -3°C° 0 mm 4 mps 733 mmHg 89%
19:00 -3°C° 0 mm 4 mps 733 mmHg 89%
20:00 -3°C° 0 mm 4 mps 733 mmHg 90%
21:00 -3°C° 0 mm 4 mps 733 mmHg 90%
22:00 -3°C° 0 mm 4 mps 732 mmHg 91%
23:00 -3°C° 0 mm 4 mps 732 mmHg 90%

27 January, Wednesday

Time Temperature Precipitation Wind Pressure Humidity
00:00 -3°C° 0 mm 4 mps 732 mmHg 89%
01:00 -3°C° 0 mm 4 mps 731 mmHg 88%
02:00 -3°C° 0 mm 4 mps 730 mmHg 89%
03:00 -3°C° 0 mm 4 mps 729 mmHg 90%
04:00 -2°C° 0 mm 3 mps 728 mmHg 91%
05:00 -3°C° 0.6 mm 4 mps 728 mmHg 93%
06:00 -2°C° 0.6 mm 4 mps 727 mmHg 95%
07:00 -2°C° 0.6 mm 4 mps 727 mmHg 97%
08:00 -2°C° 0.2 mm 4 mps 727 mmHg 97%
09:00 -1°C° 0.2 mm 4 mps 727 mmHg 98%
10:00 -1°C° 0.2 mm 4 mps 727 mmHg 99%
11:00 0°C° 0.3 mm 4 mps 727 mmHg 99%
12:00 0°C° 0.3 mm 4 mps 727 mmHg 99%
13:00 0°C° 0.3 mm 4 mps 728 mmHg 99%
14:00 0°C° 0.3 mm 4 mps 728 mmHg 99%
15:00 -1°C° 0.3 mm 4 mps 729 mmHg 99%
16:00 -1°C° 0.3 mm 4 mps 730 mmHg 99%
17:00 -1°C° 0.1 mm 4 mps 731 mmHg 99%
18:00 -1°C° 0.1 mm 4 mps 731 mmHg 99%
19:00 -2°C° 0.1 mm 4 mps 732 mmHg 98%
20:00 -2°C° 0.1 mm 4 mps 733 mmHg 98%
21:00 -1°C° 0.1 mm 3 mps 733 mmHg 98%
22:00 -1°C° 0.1 mm 3 mps 733 mmHg 98%
23:00 -1°C° 0.2 mm 4 mps 733 mmHg 98%

28 January, Thursday

Time Temperature Precipitation Wind Pressure Humidity
00:00 -1°C° 0.2 mm 4 mps 733 mmHg 98%
01:00 -1°C° 0.2 mm 4 mps 733 mmHg 98%
02:00 -1°C° 0 mm 4 mps 733 mmHg 97%
03:00 -1°C° 0 mm 4 mps 732 mmHg 96%
04:00 -1°C° 0 mm 4 mps 732 mmHg 94%
05:00 0°C° 0.5 mm 4 mps 732 mmHg 96%
06:00 0°C° 0.5 mm 4 mps 731 mmHg 97%
07:00 0°C° 0.5 mm 4 mps 731 mmHg 99%
08:00 0°C° 1 mm 4 mps 730 mmHg 99%
09:00 0°C° 1 mm 5 mps 729 mmHg 99%
10:00 0°C° 1 mm 5 mps 729 mmHg 99%
11:00 0°C° 1.6 mm 5 mps 728 mmHg 99%
12:00 +1°C° 1.6 mm 6 mps 728 mmHg 99%
13:00 +1°C° 1.6 mm 6 mps 727 mmHg 99%
14:00 +2°C° 0.5 mm 6 mps 727 mmHg 98%
15:00 +2°C° 0.5 mm 6 mps 727 mmHg 97%
16:00 +2°C° 0.5 mm 6 mps 727 mmHg 97%
17:00 +2°C° 0 mm 6 mps 727 mmHg 95%
18:00 +1°C° 0 mm 5 mps 727 mmHg 93%
19:00 +1°C° 0 mm 5 mps 727 mmHg 91%

29 January, Friday

Time Temperature Precipitation Wind Pressure Humidity
Show more